Total_Precipitation_Accumulation
2.43 2.46 2.45 2.46 2.29 2.49 2.69 3.08 3.04 3.23 3.21 2.85 2.44 2.29 2.29 2.33 2.26 2.40 2.64 2.64 2.46 2.53 3.24 3.62 3.46 3.14 2.71 2.29 2.02 1.88 1.80 1.61 1.42 1.15 1.04 1.10 1.14 1.15 1.03 0.84 0.74 0.64 0.52
2.88 2.90 2.79 2.77 2.58 2.57 2.89 3.20 3.20 3.67 3.56 3.41 2.91 2.64 2.46 2.40 2.39 2.53 2.80 2.97 2.87 2.83 3.23 3.69 3.87 3.78 3.41 2.85 2.37 2.10 2.04 1.95 1.74 1.33 1.11 1.16 1.24 1.23 1.17 1.04 0.86 0.70 0.56
3.07 3.01 3.00 2.85 2.86 2.90 3.10 3.19 3.32 3.72 3.50 3.43 3.26 2.97 2.75 2.55 2.44 2.64 3.01 3.32 2.97 2.86 3.20 3.64 4.00 3.95 3.79 3.49 2.94 2.55 2.27 2.04 1.88 1.58 1.28 1.15 1.14 1.11 1.09 1.09 0.97 0.76 0.57
3.14 3.22 3.03 2.85 3.03 3.09 3.30 3.56 3.56 3.65 3.76 3.70 3.51 3.15 3.02 2.92 2.50 2.59 2.78 2.95 3.13 2.70 3.07 3.64 3.88 3.64 3.64 3.78 3.70 3.44 3.02 2.48 2.15 1.80 1.52 1.36 1.25 1.16 1.10 1.09 1.00 0.83 0.59
3.02 3.35 3.21 3.22 3.26 3.48 3.41 3.15 3.69 3.85 3.81 3.74 3.26 3.19 2.83 2.80 2.70 2.54 2.68 2.74 2.92 2.87 2.89 2.98 3.47 3.30 3.50 3.96 4.23 4.31 4.01 3.44 2.79 2.33 1.99 1.74 1.63 1.41 1.20 1.10 0.99 0.80 0.61
2.99 3.30 3.12 3.13 3.35 3.72 3.81 3.74 3.95 3.85 3.70 3.76 3.18 3.02 2.72 2.47 2.48 2.41 2.25 2.50 2.61 2.34 2.48 2.66 3.01 2.56 2.80 3.30 3.79 4.35 4.59 4.47 3.81 3.06 2.71 2.48 2.31 1.89 1.40 1.16 1.00 0.86 0.69
2.96 3.30 3.00 3.40 3.46 3.62 3.79 3.79 3.99 3.89 3.66 3.74 3.69 3.19 2.63 2.29 2.21 2.07 2.09 2.28 2.20 2.25 2.53 2.90 3.10 3.02 2.67 2.62 2.87 3.52 4.37 4.87 4.63 3.96 3.55 3.29 3.07 2.57 1.83 1.41 1.11 0.90 0.79
2.85 2.94 3.41 3.39 3.48 3.66 3.68 3.62 3.73 3.58 3.32 3.61 3.78 3.63 2.98 2.60 2.20 1.81 2.02 2.04 2.15 2.38 2.39 2.43 2.81 3.14 2.98 3.01 2.59 2.56 3.59 4.61 5.06 4.86 4.56 4.19 3.78 3.03 2.31 1.85 1.39 1.07 0.93
2.99 3.10 3.33 3.42 3.44 3.29 3.44 3.62 3.46 3.41 3.31 3.37 3.56 3.66 3.21 2.72 2.26 1.93 1.80 1.86 2.22 2.44 2.32 2.26 2.24 2.46 2.54 2.98 3.13 2.65 2.80 3.19 3.94 4.90 5.28 5.12 4.35 3.21 2.49 2.14 1.85 1.43 1.10
2.81 2.91 3.03 3.21 3.31 3.20 3.29 3.20 3.23 3.34 3.32 3.18 3.31 3.24 3.10 2.91 2.74 2.32 1.93 1.79 1.98 2.16 2.18 1.99 2.01 2.29 2.44 2.87 3.07 2.54 2.23 2.16 2.46 3.54 4.60 4.83 4.35 3.31 2.59 2.37 2.37 2.08 1.53
2.65 2.62 2.75 2.96 3.07 2.96 2.90 3.11 3.35 3.28 3.12 3.03 3.14 3.14 3.29 3.16 2.86 2.66 2.22 1.98 1.86 1.70 1.85 1.91 1.90 1.98 2.22 2.60 2.82 2.34 2.17 1.94 1.83 2.19 2.93 3.49 3.67 3.34 2.85 2.75 2.97 2.96 2.54
2.56 2.49 2.53 2.80 2.88 2.80 2.74 2.86 2.92 2.95 2.93 3.03 3.04 2.95 3.11 3.11 2.99 2.92 2.46 2.12 1.92 1.56 1.58 1.65 1.74 1.83 1.97 2.17 2.00 1.91 1.99 1.81 1.64 1.63 1.87 2.28 2.68 2.85 2.76 2.85 3.12 3.31 3.32
2.46 2.43 2.40 2.51 2.44 2.40 2.47 2.71 2.71 2.64 2.68 2.80 2.77 2.79 2.73 2.63 2.72 2.78 2.65 2.21 1.94 1.54 1.54 1.47 1.49 1.63 1.57 1.89 2.00 1.90 1.79 1.66 1.54 1.51 1.54 1.60 1.84 2.08 2.30 2.49 2.84 3.18 3.39
2.41 2.34 2.24 2.17 2.10 2.09 2.13 2.43 2.55 2.48 2.53 2.55 2.47 2.65 2.48 2.31 2.49 2.52 2.55 2.60 2.36 2.05 1.98 1.77 1.44 1.41 1.53 1.71 1.85 1.82 1.62 1.57 1.42 1.35 1.33 1.33 1.42 1.56 1.71 1.93 2.17 2.36 2.56
2.08 2.11 2.08 1.98 1.91 1.96 2.03 2.11 2.16 2.13 2.24 2.26 2.33 2.35 2.18 2.15 2.26 2.27 2.44 2.66 2.67 2.48 2.35 2.16 1.73 1.47 1.52 1.73 1.97 1.74 1.66 1.56 1.41 1.31 1.21 1.19 1.19 1.23 1.30 1.42 1.60 1.75 1.81
2.06 1.98 1.91 1.82 1.79 1.80 1.83 1.93 1.90 1.92 1.93 1.95 2.11 2.16 2.11 2.09 2.22 2.18 2.26 2.45 2.62 2.66 2.44 2.16 1.92 1.59 1.64 1.61 1.84 1.78 1.80 1.73 1.51 1.33 1.14 1.04 1.04 1.09 1.16 1.22 1.28 1.40 1.46
2.12 2.07 1.98 1.91 1.77 1.69 1.73 1.77 1.67 1.77 1.81 1.80 1.82 1.85 1.87 1.99 2.16 2.17 2.22 2.26 2.49 2.74 2.60 2.39 2.24 2.05 1.94 1.83 1.69 1.69 1.68 1.61 1.43 1.26 1.06 0.98 0.99 1.00 1.03 1.12 1.20 1.30 1.38
1.78 1.78 1.75 1.75 1.74 1.77 1.82 1.74 1.68 1.68 1.73 1.69 1.75 1.86 1.77 1.94 2.12 2.09 2.20 2.23 2.40 2.70 2.79 2.87 2.86 2.57 2.27 2.09 2.02 1.83 1.50 1.39 1.42 1.34 1.19 1.06 0.99 0.98 0.98 1.00 1.06 1.19 1.30
1.72 1.70 1.68 1.67 1.66 1.81 1.93 1.88 1.81 1.81 1.83 1.72 1.80 1.84 1.72 1.82 1.90 1.93 2.03 2.14 2.32 2.52 2.74 2.73 2.77 2.63 2.46 2.20 2.30 2.03 1.73 1.64 1.31 1.28 1.23 1.08 1.00 0.96 0.94 0.97 1.02 1.06 1.13
1.81 1.84 1.80 1.73 1.72 1.69 1.73 1.84 1.91 1.88 1.83 1.76 1.77 1.72 1.61 1.60 1.67 1.81 1.83 1.99 2.20 2.40 2.56 2.51 2.54 2.62 2.67 2.65 2.66 2.44 2.25 2.01 1.66 1.30 1.30 1.15 1.10 1.01 0.93 0.89 0.91 0.97 1.07
1.68 1.85 1.85 1.80 1.77 1.69 1.58 1.66 1.77 1.70 1.72 1.69 1.64 1.48 1.31 1.34 1.43 1.49 1.48 1.79 2.05 2.17 2.28 2.34 2.41 2.60 2.73 2.93 2.76 2.65 2.54 2.44 2.12 1.79 1.74 1.42 1.30 1.13 0.97 0.93 0.92 0.92 0.98
1.73 1.77 1.76 1.78 1.70 1.43 1.45 1.44 1.41 1.42 1.48 1.51 1.53 1.51 1.36 1.22 1.16 1.21 1.21 1.37 1.66 1.81 1.99 2.25 2.40 2.59 2.69 2.73 2.90 2.88 2.82 2.66 2.42 2.13 2.10 2.02 1.85 1.69 1.41 1.12 1.08 0.96 0.89
1.67 1.60 1.55 1.56 1.53 1.45 1.31 1.16 1.12 1.24 1.39 1.44 1.47 1.49 1.28 1.14 1.18 1.08 1.15 1.22 1.27 1.34 1.48 1.84 2.11 2.21 2.27 2.34 2.64 2.78 2.80 2.68 2.59 2.42 2.45 2.44 2.28 2.02 1.60 1.38 1.32 1.12 1.01
1.56 1.58 1.47 1.44 1.53 1.42 1.31 1.09 0.97 0.96 1.14 1.22 1.23 1.26 1.27 1.27 1.20 1.21 1.19 1.21 1.15 1.16 1.22 1.27 1.43 1.59 1.83 2.05 2.27 2.52 2.79 2.75 2.71 2.64 2.61 2.68 2.50 2.34 1.97 1.65 1.48 1.23 1.13
1.53 1.53 1.51 1.53 1.54 1.47 1.37 1.16 1.07 1.10 1.23 1.26 1.28 1.28 1.33 1.38 1.35 1.19 1.16 1.20 1.23 1.27 1.22 1.25 1.21 1.26 1.38 1.50 1.68 1.95 2.28 2.61 2.84 2.84 2.63 2.68 2.58 2.60 2.53 2.13 1.69 1.44 1.18
1.55 1.53 1.60 1.61 1.54 1.51 1.36 1.15 1.13 1.20 1.38 1.48 1.59 1.58 1.45 1.31 1.27 1.13 1.16 1.27 1.25 1.25 1.18 1.16 1.12 1.10 1.10 1.23 1.37 1.54 1.79 2.12 2.40 2.55 2.50 2.61 2.74 3.04 3.18 2.70 2.11 1.68 1.44